Location: Lecco
(45.8566°N, 9.3977°E)
Time: 07:59:18
(UTC+02:00)

Altair - Pass Details

Date: 22 August 2020
Orbit: 1501 x 1682 km, 47.2° (Epoch: 25 September)

Event Time Altitude Azimuth Distance (km) Brightness Sun altitude
Rises 23:34:09 0° 211° (SSW) 4,899 - -27.6°
Reaches altitude 10° 23:37:34 10° 204° (SSW) 3,898 - -27.9°
Maximum altitude 23:46:36 41° 139° (SE) 2,214 - -28.6°
Exits shadow 23:50:23 30° 97° (E) 2,578 8.3 -28.9°
Drops below altitude 10° 23:55:20 10° 74° (ENE) 3,786 9.4 -29.3°
Sets 23:58:35 0° 67° (ENE) 4,747 10.1 -29.5°
